This demonstration page uses our WeatherBlox Daily Observations layout. Learn more.

Left ArrowRight Arrow

Hourly Observations for August 20, 2018

Temp ( °F °C ) Dew Point ( °F °C ) Humidity (%) Winds ( mph kmh ) Pressure ( in mb ) Visibility ( mi km ) Precip ( " mm )
12:16 am 00:16 Clear 68 20 68 20 100 100 E 7 11 30 1016 10 16.0934 N/A
12:36 am 00:36 Clear 68 20 68 20 100 100 ESE 5 7 30 1016 10 16.0934 N/A
12:57 am 00:57 Clear 68 20 68 20 100 100 E 5 7 30 1016 10 16.0934 N/A
1:16 am 01:16 Clear 66 19 66 19 100 100 ESE 5 7 30 1016 10 16.0934 N/A
1:37 am 01:37 Clear 66 19 66 19 100 100 E 6 9 30 1016 10 16.0934 N/A
1:57 am 01:57 Clear 66 19 66 19 100 100 E 6 9 29.97 1015 10 16.0934 N/A
2:16 am 02:16 Clear 66 19 66 19 100 100 E 6 9 29.97 1015 10 16.0934 N/A
2:37 am 02:37 Clear 68 20 68 20 100 100 SE 5 7 29.97 1015 10 16.0934 N/A
2:56 am 02:56 Clear 68 20 68 20 100 100 ESE 6 9 29.97 1015 10 16.0934 N/A
3:16 am 03:16 Clear 68 20 68 20 100 100 ESE 5 7 29.97 1015 10 16.0934 N/A
3:37 am 03:37 Clear 66 19 66 19 100 100 ESE 6 9 29.97 1015 10 16.0934 N/A
3:56 am 03:56 Clear 66 19 66 19 100 100 E 6 9 29.97 1015 10 16.0934 N/A
4:17 am 04:17 Clear 66 19 66 19 100 100 ESE 5 7 29.97 1015 10 16.0934 N/A
4:36 am 04:36 Clear 64 18 64 18 100 100 ESE 5 7 29.97 1015 10 16.0934 N/A
4:57 am 04:57 Clear 64 18 64 18 100 100 ESE 5 7 29.97 1015 10 16.0934 N/A
5:17 am 05:17 Clear 64 18 64 18 100 100 ESE 3 6 29.97 1015 10 16.0934 N/A
5:36 am 05:36 Clear 64 18 64 18 100 100 E 3 6 29.97 1015 10 16.0934 N/A
5:57 am 05:57 Clear 64 18 64 18 100 100 E 3 6 29.94 1014 10 16.0934 N/A
6:16 am 06:16 Clear 64 18 64 18 100 100 ESE 3 6 29.94 1014 10 16.0934 N/A
6:36 am 06:36 Clear 64 18 64 18 100 100 ESE 3 6 29.94 1014 10 16.0934 N/A
6:57 am 06:57 Mostly Cloudy 66 19 66 19 100 100 ESE 3 6 29.97 1015 10 16.0934 N/A
7:16 am 07:16 Mostly Cloudy 66 19 66 19 100 100 ESE 5 7 29.97 1015 10 16.0934 N/A
7:37 am 07:37 Partly Cloudy 66 19 66 19 100 100 ESE 5 7 29.97 1015 10 16.0934 N/A
7:56 am 07:56 Sunny 68 20 68 20 100 100 SE 5 7 29.97 1015 10 16.0934 N/A
8:16 am 08:16 Sunny 68 20 68 20 100 100 ESE 5 7 29.97 1015 10 16.0934 N/A
8:37 am 08:37 Sunny 70 21 70 21 100 100 SE 5 7 29.94 1014 10 16.0934 N/A
8:56 am 08:56 Mostly Cloudy 70 21 70 21 100 100 SE 6 9 29.94 1014 10 16.0934 N/A
9:17 am 09:17 Mostly Cloudy 72 22 72 22 100 100 ESE 8 13 29.94 1014 10 16.0934 N/A
9:36 am 09:36 Partly Cloudy 72 22 72 22 100 100 SE 9 15 29.94 1014 10 16.0934 N/A
9:56 am 09:56 Sunny 73 23 72 22 94 94 ESE 8 13 29.91 1013 10 16.0934 N/A
10:17 am 10:17 Sunny 73 23 73 23 100 100 SE 8 13 29.91 1013 10 16.0934 N/A
10:36 am 10:36 Sunny 75 24 73 23 94 94 SE 9 15 29.91 1013 10 16.0934 N/A
10:57 am 10:57 Sunny 75 24 73 23 94 94 SE 7 11 29.91 1013 10 16.0934 N/A
11:17 am 11:17 Sunny 75 24 75 24 100 100 SE 7 11 29.91 1013 10 16.0934 N/A
11:36 am 11:36 Sunny 77 25 75 24 94 94 SE 12 19 29.91 1013 10 16.0934 N/A
11:57 am 11:57 Partly Cloudy 77 25 75 24 94 94 ESE 9 15 29.88 1012 10 16.0934 N/A
12:16 pm 12:16 Partly Cloudy 79 26 75 24 89 89 SE 9 15 29.88 1012 10 16.0934 N/A
12:37 pm 12:37 Partly Cloudy 79 26 77 25 94 94 SE 10 17 29.88 1012 10 16.0934 N/A
12:57 pm 12:57 Mostly Cloudy 79 26 75 24 89 89 SSE 12 19 29.88 1012 10 16.0934 N/A
1:16 pm 13:16 Mostly Cloudy 79 26 77 25 94 94 SSE 10 17 29.88 1012 10 16.0934 N/A
1:37 pm 13:37 Mostly Cloudy 81 27 77 25 89 89 SSE 9 15 29.85 1011 10 16.0934 N/A
1:56 pm 13:56 Mostly Cloudy 81 27 77 25 89 89 SSE 14 22 29.85 1011 10 16.0934 N/A
2:16 pm 14:16 Cloudy 81 27 77 25 89 89 S 8 13 29.85 1011 10 16.0934 N/A
2:37 pm 14:37 Cloudy 82 28 77 25 84 84 S 10 17 29.85 1011 10 16.0934 N/A
2:56 pm 14:56 Cloudy 73 23 72 22 94 94 SSW 17 28 29.88 1012 1.75 2.816345 N/A
3:17 pm 15:17 Mostly Cloudy 72 22 72 22 100 100 S 10 17 29.85 1011 10 16.0934 N/A
3:36 pm 15:36 Partly Cloudy 73 23 73 23 100 100 SSE 7 11 29.85 1011 10 16.0934 N/A
3:57 pm 15:57 Sunny 77 25 77 25 100 100 S 7 11 29.85 1011 10 16.0934 N/A
4:17 pm 16:17 Sunny 79 26 77 25 94 94 S 9 15 29.83 1010 10 16.0934 N/A
4:36 pm 16:36 Partly Cloudy 79 26 77 25 94 94 S 10 17 29.83 1010 10 16.0934 N/A
4:57 pm 16:57 Sunny 79 26 77 25 94 94 S 8 13 29.83 1010 10 16.0934 N/A
5:16 pm 17:16 Sunny 79 26 77 25 94 94 S 6 9 29.83 1010 10 16.0934 N/A
5:37 pm 17:37 Partly Cloudy 79 26 77 25 94 94 SSE 9 15 29.8 1009 10 16.0934 N/A
5:57 pm 17:57 Partly Cloudy 79 26 79 26 100 100 SSE 6 9 29.8 1009 10 16.0934 N/A
6:16 pm 18:16 Mostly Cloudy 79 26 77 25 94 94 S 5 7 29.8 1009 10 16.0934 N/A
6:37 pm 18:37 Partly Cloudy 79 26 77 25 94 94 S 5 7 29.8 1009 10 16.0934 N/A
6:56 pm 18:56 Sunny 79 26 77 25 94 94 S 5 7 29.8 1009 7 11.26538 N/A
7:17 pm 19:17 Sunny 79 26 77 25 94 94 S 5 7 29.8 1009 10 16.0934 N/A
7:36 pm 19:36 Sunny 79 26 77 25 94 94 S 5 7 29.8 1009 10 16.0934 N/A
7:56 pm 19:56 Partly Cloudy 77 25 77 25 100 100 S 5 7 29.8 1009 10 16.0934 N/A
8:17 pm 20:17 Sunny 77 25 75 24 94 94 S 5 7 29.8 1009 10 16.0934 N/A
8:36 pm 20:36 Clear 75 24 75 24 100 100 S 3 6 29.83 1010 10 16.0934 N/A
8:57 pm 20:57 Clear 75 24 75 24 100 100 SSE 3 6 29.83 1010 10 16.0934 N/A
9:16 pm 21:16 Clear 75 24 75 24 100 100 SSE 6 9 29.83 1010 10 16.0934 N/A
9:37 pm 21:37 Clear 75 24 75 24 100 100 Calm 29.83 1010 10 16.0934 N/A
9:57 pm 21:57 Clear 73 23 73 23 100 100 S 7 11 29.83 1010 10 16.0934 N/A
10:16 pm 22:16 Clear 73 23 73 23 100 100 S 7 11 29.83 1010 10 16.0934 N/A
10:36 pm 22:36 Clear 73 23 73 23 100 100 S 8 13 29.83 1010 10 16.0934 N/A
10:57 pm 22:57 Clear 72 22 72 22 100 100 SSE 8 13 29.83 1010 10 16.0934 N/A
11:16 pm 23:16 Partly Cloudy 70 21 70 21 100 100 S 3 6 29.83 1010 10 16.0934 N/A
11:37 pm 23:37 Partly Cloudy 70 21 70 21 100 100 S 3 6 29.83 1010 10 16.0934 N/A
11:56 pm 23:56 Mostly Cloudy 70 21 70 21 100 100 SE 6 9 29.8 1009 10 16.0934 N/A

Powered by AerisWeather